Location: Kitchener-Waterloo
(43.4500°N, 80.5000°W)
Time: 05:24:55
(UTC-04:00)

Daily predictions for brighter satellites

Satellite Brightness Start Highest point End
(mag) Time Altitude Azimuth Time Altitude Azimuth Time Altitude Azimuth
Cosmos 1455 3.0 00:03:16 10° NNW 00:06:53 42° W 00:07:33 38° WSW
Cosmos 1869 3.7 00:02:56 10° NNW 00:06:55 55° W 00:07:41 47° SW
Cosmos 2297 Rocket 2.1 00:10:26 39° S 00:12:35 77° ESE 00:18:15 10° NNE
ATLAS 3B R/B 2.8 00:05:37 10° NNW 00:12:42 69° NE 00:16:07 31° SE
H-2A R/B 3.5 00:10:13 20° SW 00:12:51 29° W 00:17:34 10° NW
GEOS 3 Rocket 3.8 00:11:06 34° ESE 00:13:20 65° NE 00:18:30 10° NNW
Lacrosse 4 Rocket 2.0 00:14:13 10° NNW 00:18:33 52° ENE 00:19:36 42° ESE
Meteor 1-26 Rocket 4.4 00:13:14 10° N 00:18:47 61° ENE 00:20:33 42° SE
Cosmos 2219 Rocket 3.2 00:15:36 10° NW 00:20:38 35° WSW 00:22:26 28° SW
Cosmos 1269 Rocket 3.9 00:15:21 10° NNW 00:20:42 87° ENE 00:22:09 50° SSE
Cosmos 1869 Rocket 3.5 00:21:53 61° SE 00:22:27 70° E 00:26:57 10° NNE
CZ-2C R/B 4.4 00:19:36 10° NE 00:22:51 16° E 00:23:25 16° E
Cosmos 389 Rocket 3.0 00:23:41 10° N 00:26:59 52° ENE 00:26:59 52° ENE
NOSS 2-3 (E) 4.5 00:27:22 40° ESE 00:27:24 40° ESE 00:32:33 10° NE
ALOS 2 3.0 00:27:29 46° ESE 00:28:11 51° ENE 00:32:27 10° N
BREEZE-M DEB (TANK) 3.8 00:26:30 10° WNW 00:27:42 29° W 00:27:42 29° W
Landsat 5 4.3 00:33:06 40° E 00:33:55 44° ENE 00:38:14 10° N
Terra 3.9 00:34:39 14° WSW 00:36:30 17° W 00:39:35 10° NW
H-2A R/B 2.6 00:35:59 10° NNE 00:40:08 57° ESE 00:40:11 57° ESE
Cosmos 44 Rocket 3.9 00:40:52 43° ESE 00:40:55 43° ESE 00:45:51 10° NE
Cosmos 1689 Rocket 3.2 00:42:10 44° NE 00:42:10 44° NE 00:44:53 10° N
CZ-4B R/B 2.0 00:44:09 55° NE 00:44:09 55° NE 00:47:13 10° N
COSMOS 2455 2.8 00:38:05 10° NNW 00:44:07 76° WSW 00:45:49 49° S
Cosmos 1900 4.2 00:42:12 10° NW 00:47:10 69° WSW 00:47:46 61° SSW
Cosmos 1125 Rocket 3.7 00:46:29 39° SW 00:48:22 67° WNW 00:53:41 10° NNE
Cosmos 1048 Rocket 4.1 00:43:48 10° NNW 00:49:07 68° WSW 00:50:14 53° SSW
Cosmos 2237 Rocket 3.3 00:44:14 10° NW 00:49:12 32° WSW 00:50:31 28° SW
Cosmos 2074 Rocket 4.0 00:47:39 46° S 00:49:39 77° E 00:55:58 10° N
BREEZE-M TANK 3.3 00:38:56 10° W 00:50:26 78° NNW 00:53:43 10° ENE
Meteor 2-3 Rocket 3.7 00:49:35 50° SSE 00:51:03 73° E 00:56:47 10° NNE
Cosmos 1703 Rocket 4.4 00:50:03 10° NNW 00:54:05 38° W 00:54:35 36° WSW
NOSS 2-3 (C) 3.9 00:53:45 59° SSE 00:54:26 67° ESE 01:00:05 10° NE
Cosmos 2221 Rocket 4.4 00:50:36 10° NNW 00:54:53 41° W 00:55:32 38° WSW
Okean 1-7 3.1 00:51:09 10° NNW 00:55:23 59° W 00:55:37 58° WSW
SeaSat 1 3.0 00:55:21 41° SW 00:55:53 43° WSW 01:00:36 10° NW
Helios 1B 4.4 00:56:44 72° SE 00:57:05 79° ENE 01:01:27 10° N
Cosmos 1892 3.4 00:58:06 43° ENE 00:58:06 43° ENE 01:01:18 10° NNE
Cosmos 2327 Rocket 4.5 00:57:08 46° S 00:59:16 89° E 01:05:43 10° N
Aureole 2 Rocket 3.3 01:00:35 10° NNW 01:02:52 43° N 01:02:52 43° N
CZ-4C R/B 3.8 00:58:05 10° NNW 01:04:40 44° NE 01:11:55 10° ESE
Helios 1A Rocket 3.1 01:02:55 10° NNE 01:06:57 60° E 01:06:57 60° E
Cosmos 1674 Rocket 3.8 01:08:34 10° N 01:12:55 56° E 01:13:19 53° ESE
CZ-4C R/B 4.4 01:14:40 30° WNW 01:14:40 30° WNW 01:17:15 10° NNW
In-Cosmos 22 Rocket 4.4 01:12:49 45° SW 01:14:29 67° WNW 01:20:15 10° N
NOSS 2-3 (D) 3.9 01:14:26 55° SW 01:15:36 88° NW 01:21:22 10° NE
Cosmos 2154 Rocket 4.2 01:14:43 44° SSE 01:16:35 61° E 01:22:47 10° NNE
ASTEX 1 3.4 01:12:09 10° N 01:17:02 72° W 01:17:51 59° SW
Cosmos 1607 4.3 01:11:54 10° NNW 01:17:59 58° NE 01:21:20 27° ESE
Cosmos 1782 3.1 01:15:06 10° N 01:18:58 55° ENE 01:18:58 55° ENE
Cosmos 1238 Rocket 3.8 01:17:57 10° N 01:21:49 35° ENE 01:21:56 35° E
Cosmos 372 Rocket 4.4 01:21:19 40° WSW 01:22:55 57° WNW 01:28:05 10° NNE
Cosmos 158 Rocket 4.0 01:19:01 10° NNW 01:24:16 63° WSW 01:24:59 57° SW
Cosmos 1825 4.0 01:26:16 22° E 01:26:16 22° E 01:29:02 10° NE
Cosmos 921 Rocket 3.6 01:26:24 43° E 01:26:24 43° E 01:30:08 10° NNE
ERBS 4.4 01:24:46 20° WNW 01:26:18 27° NNW 01:29:20 10° NNE
Cosmos 1340 Rocket 2.8 01:26:58 77° NNW 01:26:58 77° NNW 01:30:43 10° N
Cosmos 1408 4.4 01:27:35 22° E 01:27:35 22° E 01:30:20 10° NE
Cosmos 2184 Rocket 4.3 01:26:37 38° SW 01:28:49 57° WNW 01:34:56 10° N
Cosmos 1932 4.4 01:22:25 10° NW 01:28:50 80° WSW 01:30:56 46° SSE
Cosmos 2227 Rocket 4.3 01:25:24 10° W 01:29:44 22° NW 01:34:06 10° N
Cosmos 1908 Rocket 4.1 01:29:40 44° E 01:29:49 44° E 01:33:57 10° NNE
Cosmos 2084 Rocket 3.6 01:33:17 53° ENE 01:33:17 53° ENE 01:36:22 10° NE
Cosmos 2333 Rocket 4.5 01:34:58 10° W 01:36:10 11° W 01:37:11 10° WSW
Cosmos 2263 Rocket 3.5 01:35:36 25° ESE 01:36:31 26° ESE 01:41:10 10° NE
FALCON 9 R/B 3.9 01:29:13 10° W 01:36:25 25° SW 01:36:25 25° SW
SL-16 R/B 3.4 01:36:23 10° NW 01:41:03 27° WSW 01:41:37 26° WSW
Cosmos 2227 4.2 01:41:57 48° SW 01:43:35 76° WNW 01:49:17 10° NNE
ATLAS 2AS CENTAUR R/B 4.1 01:36:38 10° WSW 01:43:52 43° NW 01:51:33 10° NNE
Cosmos 2341 Rocket 4.0 01:44:41 47° S 01:46:44 82° E 01:53:09 10° N
CZ-2C R/B 3.3 01:46:35 45° SSE 01:48:28 77° ENE 01:54:07 10° N
Meteor 1-27 Rocket 3.8 01:43:26 10° N 01:49:20 79° ENE 01:51:04 47° SSE
Uosat 12 SS-18 rocket 4.3 01:48:32 55° WSW 01:49:31 75° NW 01:53:59 10° NNE
Sich 1 Rocket 3.4 01:49:59 74° SW 01:50:21 82° W 01:54:54 10° N
Cosmos 44 3.4 01:51:01 59° S 01:51:59 75° ESE 01:57:27 10° NE
Cosmos 2251 Rocket 3.9 01:47:06 10° NNW 01:52:12 48° WSW 01:52:48 46° SW
Lacrosse 4 Rocket 3.6 01:53:58 10° WNW 01:55:56 16° W 01:55:56 16° W
Cosmos 2297 Rocket 4.4 01:53:15 10° W 01:57:17 20° NW 02:01:20 10° N
Cosmos 962 Rocket 4.4 01:57:34 47° SSW 01:59:27 81° W 02:05:36 10° N
Cosmos 1862 3.2 02:02:06 78° E 02:02:06 78° E 02:06:08 10° N
ATLAS 3B R/B 3.8 01:57:21 10° WNW 02:02:43 25° WSW 02:03:20 25° WSW
Cosmos 1733 Rocket 4.0 02:02:26 34° W 02:03:02 35° WNW 02:07:10 10° N
CZ-2C R/B 2.7 01:58:25 10° N 02:03:36 64° WNW 02:04:56 47° SW
Meteor 2-10 Rocket 4.5 01:58:37 10° NNW 02:03:43 38° W 02:04:51 34° WSW
Cosmos 1356 Rocket 4.1 02:05:49 40° W 02:06:00 40° WNW 02:09:51 10° N
Cosmos 1943 3.2 02:00:35 10° NNW 02:06:18 83° ENE 02:08:22 41° SSE
Cosmos 1867 4.3 02:01:37 10° NNW 02:06:59 50° NE 02:11:13 16° ESE
SL-8 Rocket 4.1 02:05:15 42° SSE 02:07:28 71° E 02:13:47 10° NNE
USA 238 DEB 4.0 02:01:08 10° NW 02:07:53 50° WSW 02:09:41 41° SSW
USA 238 4.0 02:01:14 10° NW 02:07:59 51° WSW 02:09:49 41° SSW
Coronas F rocket 4.0 02:11:14 16° NW 02:11:14 16° NW 02:12:15 10° NNW
Okean 3 3.3 02:07:22 10° N 02:11:42 89° E 02:12:06 73° SSE
Cosmos 2218 Rocket 4.2 02:10:59 39° SSE 02:13:18 66° E 02:19:35 10° NNE
Cosmos 1603 4.4 02:09:39 10° NW 02:14:50 37° WSW 02:15:27 36° WSW
Cosmos 1606 3.1 02:11:17 10° NNW 02:14:46 51° WNW 02:14:46 51° WNW
Cosmos 1378 Rocket 3.5 02:11:14 10° NNW 02:15:34 62° W 02:15:49 61° WSW
Cosmos 1242 Rocket 4.0 02:16:07 10° NNE 02:19:11 28° ENE 02:19:51 26° E
Meteor 2-13 Rocket 4.4 02:17:20 45° SSW 02:19:23 85° W 02:25:34 10° N
Iridium 4 Rocket 4.2 02:23:09 10° NNE 02:27:32 42° E 02:29:32 28° SE
Abrixas rocket 4.4 02:29:26 18° E 02:29:26 18° E 02:30:38 10° E
Cosmos 2366 rocket 4.0 02:27:26 39° S 02:29:50 76° E 02:36:01 10° N
USA 234 3.3 02:23:59 10° ESE 02:30:30 80° NE 02:37:04 10° NW
Okean 2 Rocket 3.0 02:30:45 60° SSW 02:31:30 79° W 02:36:03 10° N
Cosmos 1184 Rocket 3.2 02:34:38 57° E 02:34:38 57° E 02:37:48 10° NNE
Cosmos 1782 Rocket 3.8 02:37:33 49° WSW 02:38:12 54° W 02:42:31 10° N
CENTAUR R/B 4.3 02:32:48 10° NNW 02:39:58 41° NE 02:47:38 10° ESE
Meteor 2-8 Rocket 4.5 02:34:45 10° N 02:40:51 76° E 02:43:58 31° SSE
NOSS 3-2 (C) 3.9 02:34:16 10° NW 02:41:48 81° SW 02:48:50 14° SSE
NPP 4.4 02:40:16 10° NNE 02:45:25 44° E 02:47:49 28° SSE
Cosmos 1727 Rocket 3.9 02:43:27 10° N 02:49:43 83° W 02:52:37 34° S
SL-08 R/B 4.0 02:47:35 22° SE 02:50:38 53° ENE 02:55:25 10° N
CZ-4C R/B 3.1 02:46:35 10° NW 02:53:29 52° WSW 02:57:14 29° S
Cosmos 864 Rocket 4.4 02:51:33 37° SSW 02:54:10 76° W 03:00:20 10° N
Cosmos 1975 Rocket 4.0 02:56:03 10° NNW 02:59:56 31° W 03:00:19 30° W
Cosmos 1812 3.7 02:56:33 10° N 03:00:18 43° ENE 03:02:07 25° SE
ERS-2 3.1 02:57:44 10° NNE 03:01:16 40° E 03:02:13 33° SE
Cosmos 1825 3.7 03:01:12 24° W 03:01:34 24° WNW 03:04:43 10° NNW
Cosmos 1408 4.2 03:02:06 23° W 03:02:27 24° WNW 03:05:34 10° NNW
NOSS 3-4 (A) 3.7 03:01:27 29° SW 03:04:55 69° NW 03:11:32 10° NNE
NOSS 3-4 (C) 3.7 03:01:33 29° SW 03:05:00 69° NW 03:11:37 10° NNE
USA 161 4.2 03:04:08 11° ESE 03:05:52 18° ENE 03:07:56 10° NNE
NOSS 3-2 (A) 4.2 02:58:44 10° NW 03:05:58 52° WSW 03:10:44 24° S
Okean 1 4.2 03:02:13 10° N 03:06:04 44° ENE 03:08:13 23° SE
PSLV R/B 3.7 03:02:25 10° N 03:06:34 57° WNW 03:07:38 43° SW
Cosmos 1190 Rocket 4.0 03:01:37 10° NNW 03:06:53 79° ENE 03:10:22 21° SSE
BREEZE-M DEB (TANK) 4.4 03:04:04 10° WNW 03:07:38 49° NNE 03:19:43 10° E
CZ-2D R/B 4.3 03:04:18 10° NE 03:08:09 19° E 03:11:58 10° SE
AQUA 4.2 03:03:35 10° NNE 03:08:17 57° E 03:10:25 31° SSE
Cosmos 1536 Rocket 3.5 03:07:34 10° NNW 03:11:57 74° W 03:13:24 41° S
Cosmos 1371 Rocket 4.2 03:12:16 34° SW 03:14:32 65° WNW 03:19:53 10° NNE
RESURS DK-1 2.4 03:13:25 44° SW 03:14:36 68° WNW 03:18:46 10° NNE
Cosmos 2056 Rocket 3.5 03:13:32 35° SSW 03:15:48 84° WNW 03:21:06 10° NNE
Cosmos 1844 Rocket 3.7 03:14:56 21° SSE 03:18:09 39° ESE 03:23:21 10° NE
Cosmos 2263 Rocket 2.8 03:17:17 26° WSW 03:20:09 48° WNW 03:25:40 10° NNE
Cosmos 407 Rocket 3.4 03:18:29 10° NNW 03:23:40 88° ENE 03:27:41 17° SSE
IRS-1C 4.2 03:22:53 10° NNE 03:28:15 73° ESE 03:31:24 25° S
COSMOS 2406 3.2 03:23:23 10° NNW 03:29:12 85° WSW 03:34:45 11° SSE
Cosmos 2151 Rocket 4.2 03:28:41 31° WSW 03:30:09 42° WNW 03:34:25 10° N
Cosmos 676 Rocket 4.1 03:25:07 10° NNW 03:30:20 77° ENE 03:35:30 10° SSE
Meteor 1-25 Rocket 4.2 03:27:44 29° SSW 03:30:48 77° W 03:36:37 10° N
Okean 1-7 Rocket 3.7 03:28:55 10° N 03:33:31 77° E 03:36:41 20° SSE
Cosmos 1000 Rocket 4.4 03:28:07 10° N 03:34:16 84° W 03:38:56 18° S
SL-27 R/B 2.4 03:33:26 10° NNW 03:37:06 86° WSW 03:39:04 26° SSE
Cosmos 2278 Rocket 3.8 03:32:47 11° SSE 03:37:15 28° ESE 03:41:59 10° NE
SL-16 R/B 3.2 03:33:22 10° SE 03:39:26 56° ENE 03:45:30 10° N
ATLAS 5 CENTAUR R/B 4.0 03:37:10 10° NNW 03:42:33 36° NE 03:48:17 10° ESE
Cosmos 909 Rocket 4.4 03:38:46 23° SW 03:42:58 67° NW 03:50:29 10° NNE
Okean 1 Rocket 3.0 03:41:19 28° S 03:43:38 85° W 03:48:07 10° N
IRS-1D 4.3 03:38:49 10° NNE 03:43:43 45° E 03:47:47 14° SSE
SAR-Lupe-3 4.4 03:42:09 25° SSE 03:44:05 88° WSW 03:47:40 10° NNW
Okean O Rocket 4.2 03:44:36 10° ENE 03:47:02 15° E 03:49:26 10° SE
Cosmos 1602 4.3 03:45:03 20° SSE 03:47:30 52° E 03:51:16 10° NNE
UNK 4.5 03:46:40 20° SSW 03:51:45 39° SSE 03:55:08 10° E
Cosmos 1242 Rocket 4.4 03:51:49 10° NW 03:54:00 16° W 03:54:02 16° W
NOSS 2-2 (E) 4.4 03:51:36 21° S 03:54:04 42° ESE 03:58:37 10° NE
Cosmos 1605 Rocket 4.4 03:49:43 12° S 03:55:23 63° E 04:01:34 10° NNE
BREEZE-M DEB (TANK) 3.9 03:47:17 10° W 03:55:56 43° NNW 03:58:58 10° ENE
CBERS 1 LM4 rocket 4.5 03:51:27 10° N 03:56:24 67° WNW 03:59:26 22° SSW
GP-B 3.5 03:52:15 10° N 03:56:33 49° W 03:58:56 24° SW
Resurs 1-4 Rocket 2.8 03:51:24 10° NNE 03:56:34 50° E 04:01:31 11° S
Cosmos 1821 Rocket 4.0 03:52:01 19° SSW 03:56:43 77° W 04:03:10 10° N
Meteor 2-4 Rocket 4.5 03:51:27 10° N 03:56:44 50° ENE 04:01:55 10° SSE
Cosmos 2123 Rocket 4.1 03:51:18 10° N 03:57:40 83° E 04:03:59 10° S
Cosmos 1954 Rocket 3.9 03:53:06 10° NNW 03:58:18 79° WSW 04:03:27 10° SSE
Cosmos 1536 3.3 04:00:51 15° S 04:04:07 60° E 04:08:09 10° NNE
Abrixas rocket 2.7 04:02:23 19° W 04:04:38 59° NNW 04:07:58 10° ENE
Meteor 2-14 Rocket 4.4 04:03:36 15° S 04:08:43 87° W 04:14:50 10° N
UNKNOWN OBJECT B 3.9 04:07:44 10° NNE 04:11:40 44° E 04:15:34 10° S
Meteor 2-21 Rocket 4.5 04:08:12 16° SSW 04:13:03 70° W 04:19:10 10° N
USA 234 3.9 04:08:18 10° S 04:13:54 30° SW 04:19:33 10° WNW
Cosmos 1025 Rocket 2.9 04:09:48 10° N 04:14:06 83° W 04:18:24 10° S
Gbstr 26 Del rocket 2.8 04:12:40 21° SW 04:15:06 63° SE 04:18:48 10° ENE
Cosmos 614 Rocket 4.5 04:10:29 10° NNW 04:15:39 63° ENE 04:20:44 10° SSE
Cosmos 1633 2.8 04:13:03 14° S 04:16:00 69° E 04:19:38 10° NNE
Meteor 2-15 4.4 04:12:14 10° NNW 04:18:23 73° W 04:24:29 10° S
ARIANE 5 R/B 2.5 04:14:09 10° N 04:19:09 77° WNW 04:23:26 14° SSW
ADEOS 4.1 04:14:34 10° N 04:19:34 47° WNW 04:23:30 16° SW
Cosmos 1356 4.0 04:18:17 12° S 04:21:31 58° E 04:25:02 10° NNE
Meteor 1-19 Rocket 4.3 04:16:00 10° NNW 04:21:47 73° W 04:27:36 10° S
Cosmos 1452 Rocket 3.9 04:18:09 17° SW 04:21:59 51° WNW 04:27:08 10° N
MTI 4.1 04:20:04 10° SSE 04:23:21 72° ENE 04:26:40 10° N
SME Rocket 2.8 04:20:56 10° SSE 04:24:39 80° WSW 04:28:47 10° NNW
COSMOS 2487 2.4 04:26:26 10° NNW 04:30:03 71° WSW 04:33:39 10° S
CENTAUR R/B 3.1 04:23:25 10° NW 04:31:09 62° WSW 04:39:17 10° SSE
UNK 3.8 04:28:09 10° S 04:32:42 59° W 04:37:18 10° NNW
EO 1 Del DPAF 3.5 04:29:20 10° S 04:33:06 49° W 04:36:55 10° NNW
Tiangong 1 3.2 04:34:49 11° S 04:34:49 11° S 04:35:11 10° S
Cosmos 1420 Rocket 4.1 04:29:24 13° SSW 04:34:07 77° WNW 04:39:27 10° NNE
ERS-2 4.3 04:32:31 10° NNW 04:34:44 15° WNW 04:36:57 10° W
Cosmos 1544 Rocket 3.6 04:30:40 10° S 04:35:06 87° W 04:39:33 10° N
Meteor 1-11 Rocket 4.1 04:30:22 13° SSW 04:35:37 56° WNW 04:41:30 10° N
USA 161 3.2 04:35:20 15° WSW 04:36:10 17° W 04:38:12 10° NW
MOS 1-B 4.4 04:33:26 10° NNE 04:39:17 84° WNW 04:45:06 10° SSW
Cosmos 1833 Rocket 4.4 04:35:36 10° NNW 04:40:50 38° ENE 04:46:02 10° SE
CZ-2D R/B 2.4 04:43:15 10° N 04:48:36 60° WNW 04:53:58 10° SSW
Cosmos 1400 Rocket 2.9 04:45:00 10° SSW 04:48:50 60° WNW 04:52:44 10° N
Cosmos 2100 Rocket 4.3 04:43:39 10° S 04:49:51 73° E 04:56:10 10° NNE
Cosmos 1459 Rocket 4.4 04:44:00 10° S 04:50:19 70° E 04:56:35 10° NNE
Cosmos 1892 Rocket 4.0 04:51:43 10° NNW 04:55:51 43° W 04:59:57 10° SSW
Cosmos 1140 Rocket 4.1 04:51:22 10° NW 04:56:02 36° WSW 05:00:41 10° SSW
Cosmos 1844 Rocket 3.7 04:56:57 10° WSW 05:02:04 34° NW 05:07:13 10° N
Cosmos 1850 Rocket 4.5 04:58:42 10° NW 05:03:36 41° WSW 05:08:30 10° S
NOSS 2-2 (D) 4.1 04:59:57 10° SW 05:04:04 52° NW 05:08:55 10° NNE
CZ-4B R/B 3.7 04:59:53 10° NNE 05:04:25 60° E 05:08:51 10° S
Timation 2 Rocket 3.9 04:58:33 10° NNW 05:04:40 67° WSW 05:10:35 10° SSE
Cosmos 1741 Rocket 4.4 04:59:50 10° NNW 05:04:47 42° WSW 05:09:41 10° S
BREEZE-M DEB (TANK) 3.0 05:03:13 10° SSW 05:05:41 30° SE 05:08:40 10° E
Cosmos 1844 4.5 05:01:19 10° SW 05:06:40 41° WNW 05:12:07 10° NNE
Okean-O 4.1 05:06:20 10° NNE 05:10:28 37° E 05:14:35 10° SSE
